Flag for Denmark Weather past 2 weeks in Aarhus, Denmark

Now
37 °F

Chilly.


Feels Like: 37 °F
Forecast: 50 / 57 °F
Wind: No wind

Location: Tirstrup

Current Time: Sep 23, 2014 at 9:00:04 AM

Latest Report: Sep 23, 2014 at 8:20 AM


Visibility: 6 mi

Pressure: 30.07 "Hg

Humidity: 87%

Dew point: 34 °F

Location of AarhusLocation

Historic Weather in Aarhus — Graph

°F

Aarhus temperature yesterday

Maximum temperature yesterday: 57 °F (at 3:50 PM)
Minimum temperature yesterday: 46 °F (at 10:20 PM)
Average temperature yesterday: 51 °F

Past Weeks' High & Low Weather Summary

 TemperatureHumidityPressure
High70 °F (Sep 12, 4:20 PM)94% (Sep 8, 7:50 AM)30.36 "Hg (Sep 8, 7:50 AM)
Low36 °F (Sep 23, 7:50 AM)48% (Sep 22, 3:50 PM)29.77 "Hg (Sep 21, 11:50 PM)
Average59 °F76%30.10 "Hg
* Reported Sep 8 7:20 AM — Sep 23 7:50 AM, Aarhus, Weather by CustomWeather, © 2014

Note: Actual official high and low records may vary slightly from our data, if they occured in-between our weather recording intervals... More about our weather records

Advertising

Aarhus weather history for previous 24 hours

 ConditionsComfort  
Time TempWeatherWind HumidityBarometerVisibility
7:50 AM
Sep 23
36 °FChilly.1 mph87%30.07 "Hg4 mi
7:20 AM37 °FChilly.1 mph81%30.07 "Hg4 mi
6:50 AM37 °FLight fog.No wind87%30.07 "Hg1 mi
6:20 AM37 °FChilly.No wind87%30.07 "Hg3 mi
5:50 AM37 °FChilly.1 mph87%30.07 "Hg4 mi
5:20 AM39 °FChilly.1 mph81%30.07 "Hg4 mi
4:50 AM41 °FFog.3 mph81%30.07 "Hg2 mi
4:20 AM41 °FQuite cool.No wind81%30.07 "Hg5 mi
3:50 AM41 °FQuite cool.No wind81%30.07 "HgN/A
3:20 AM43 °FPassing clouds.3 mph76%30.07 "HgN/A
2:50 AM43 °FPassing clouds.5 mph81%30.07 "HgN/A
2:20 AM43 °FQuite cool.6 mph81%30.07 "HgN/A
1:50 AM43 °FQuite cool.3 mph76%30.07 "HgN/A
1:20 AM45 °FQuite cool.6 mph76%30.07 "HgN/A
12:50 AM45 °FQuite cool.5 mph76%30.07 "HgN/A
12:20 AM46 °FPassing clouds.2 mph71%30.07 "HgN/A
11:50 PM
Sep 22
46 °FCool.6 mph71%30.07 "HgN/A
11:20 PM46 °FPassing clouds.7 mph71%30.07 "HgN/A
10:50 PM48 °FPassing clouds.7 mph71%30.04 "HgN/A
10:20 PM46 °FPassing clouds.5 mph76%30.04 "HgN/A
9:50 PM48 °FPassing clouds.5 mph71%30.04 "HgN/A
9:20 PM48 °FPassing clouds.7 mph71%30.04 "HgN/A
8:50 PM48 °FPassing clouds.9 mph71%30.04 "HgN/A
8:20 PM52 °FPassing clouds.6 mph62%30.01 "HgN/A
7:50 PM52 °FScattered clouds.6 mph62%30.01 "HgN/A
7:20 PM54 °FScattered clouds.8 mph58%30.01 "HgN/A
6:50 PM54 °FScattered clouds.9 mph54%29.98 "HgN/A
6:20 PM55 °FPartly sunny.14 mph51%29.98 "HgN/A
5:50 PM55 °FPassing clouds.14 mph51%29.98 "HgN/A
5:20 PM55 °FScattered clouds.16 mph51%29.98 "HgN/A
4:50 PM55 °FScattered clouds.17 mph51%29.95 "HgN/A
4:20 PM55 °FScattered clouds.17 mph51%29.95 "HgN/A
3:50 PM57 °FScattered clouds.18 mph48%29.95 "HgN/A
2:20 PM55 °FPartly sunny.21 mph55%29.92 "HgN/A
1:50 PM55 °FScattered clouds.20 mph55%29.89 "HgN/A
1:20 PM55 °FPartly sunny.21 mph59%29.89 "HgN/A
12:50 PM55 °FPartly sunny.20 mph63%29.89 "HgN/A
12:20 PM54 °FLight rain. Partly sunny.17 mph77%29.89 "HgN/A
11:50 AM54 °FLight rain. Partly sunny.17 mph72%29.89 "HgN/A
11:20 AM52 °FSprinkles. Partly sunny.15 mph77%29.86 "HgN/A
10:50 AM52 °FSprinkles. Partly sunny.16 mph77%29.86 "HgN/A
10:20 AM52 °FSprinkles. Partly sunny.18 mph77%29.86 "HgN/A
9:50 AM52 °FPartly sunny.17 mph72%29.83 "HgN/A
9:20 AM50 °FPartly sunny.15 mph82%29.83 "HgN/A
Weather by CustomWeather, © 2014

See weather overviewHow to use our weather pages